| time (UTC) | temp C | wind direction | speed KPH | gust KPH | rain 1hr cm | rain 24hr cm | rain mn cm | humidity % | barometer mb |
| 20260509213117 | 22 | 194 | 8.0 | 17.7 | 0.00 | 0.18 | 0.08 | 85 | 228.3 |
| 20260509212558 | 22 | 225 | 8.0 | 19.3 | 0.00 | 0.18 | 0.08 | 85 | 2142.4 |
| 20260509212058 | 22 | 221 | 9.7 | 19.3 | 0.00 | 0.18 | 0.08 | 85 | 229.5 |
| 20260509211615 | 22 | 179 | 9.7 | 16.1 | 0.00 | 0.18 | 0.08 | 85 | 300.9 |
| 20260509211102 | 22 | 221 | 8.0 | 16.1 | 0.00 | 0.18 | 0.08 | 85 | 2049.4 |
| 20260509210601 | 22 | 208 | 4.8 | 9.7 | 0.00 | 0.18 | 0.08 | 85 | 1211.8 |
| 20260509205558 | 22 | 203 | 9.7 | 17.7 | 0.00 | 0.18 | 0.08 | 85 | 559.8 |
| 20260509205058 | 22 | 217 | 8.0 | 16.1 | 0.00 | 0.18 | 0.08 | 85 | 880.7 |
| 20260509204605 | 22 | 224 | 6.4 | 12.9 | 0.00 | 0.18 | 0.08 | 85 | 145.3 |
| 20260509204059 | 22 | 200 | 3.2 | 11.3 | 0.00 | 0.18 | 0.08 | 85 | 973.8 |
| 20260509203559 | 22 | 218 | 6.4 | 14.5 | 0.00 | 0.18 | 0.08 | 85 | 1232.5 |
| 20260509203101 | 22 | 215 | 4.8 | 14.5 | 0.00 | 0.18 | 0.08 | 85 | 622.0 |
| 20260509202559 | 22 | 214 | 4.8 | 16.1 | 0.00 | 0.18 | 0.08 | 86 | 73.9 |
| 20260509202059 | 22 | 183 | 6.4 | 16.1 | 0.00 | 0.18 | 0.08 | 86 | 870.4 |
| 20260509201600 | 22 | 209 | 6.4 | 14.5 | 0.00 | 0.18 | 0.08 | 86 | 963.5 |
| 20260509201058 | 22 | 202 | 6.4 | 14.5 | 0.00 | 0.18 | 0.08 | 86 | 1035.9 |
| 20260509200558 | 22 | 196 | 4.8 | 14.5 | 0.00 | 0.18 | 0.08 | 86 | 136.2 |
| 20260509195558 | 22 | 198 | 4.8 | 19.3 | 0.00 | 0.18 | 0.08 | 86 | 1387.6 |
| 20260509195102 | 22 | 237 | 6.4 | 19.3 | 0.00 | 0.18 | 0.08 | 86 | 2142.4 |
| 20260509194600 | 22 | 204 | 4.8 | 11.3 | 0.00 | 0.18 | 0.08 | 86 | 383.8 |
| 20260509194058 | 22 | 173 | 3.2 | 17.7 | 0.00 | 0.18 | 0.08 | 86 | 1046.2 |
| 20260509193601 | 22 | 192 | 8.0 | 22.5 | 0.00 | 0.18 | 0.08 | 86 | 1563.4 |
| 20260509193103 | 22 | 213 | 6.4 | 22.5 | 0.00 | 0.18 | 0.08 | 86 | 374.6 |
| 20260509192558 | 22 | 168 | 9.7 | 16.1 | 0.00 | 0.18 | 0.08 | 86 | 1780.6 |
| 20260509192059 | 22 | 193 | 8.0 | 16.1 | 0.00 | 0.18 | 0.08 | 87 | 404.5 |
| 20260509191601 | 22 | 224 | 6.4 | 16.1 | 0.00 | 0.18 | 0.08 | 87 | 1315.2 |
| 20260509191103 | 22 | 207 | 8.0 | 17.7 | 0.00 | 0.18 | 0.08 | 87 | 1387.6 |
| 20260509190604 | 22 | 216 | 9.7 | 17.7 | 0.00 | 0.18 | 0.08 | 87 | 477.0 |
| 20260509190104 | 22 | 217 | 6.4 | 14.5 | 0.00 | 0.18 | 0.08 | 87 | 145.3 |
| 20260509185603 | 22 | 221 | 6.4 | 16.1 | 0.00 | 0.18 | 0.08 | 87 | 2142.4 |
| 20260509185059 | 22 | 213 | 6.4 | 24.1 | 0.00 | 0.18 | 0.08 | 87 | 41.5 |
| 20260509184601 | 22 | 196 | 8.0 | 24.1 | 0.00 | 0.18 | 0.08 | 87 | 559.8 |
| 20260509184058 | 22 | 225 | 4.8 | 12.9 | 0.00 | 0.18 | 0.08 | 87 | 1532.4 |
| 20260509183558 | 22 | 233 | 6.4 | 12.9 | 0.00 | 0.18 | 0.08 | 87 | 1149.7 |
| 20260509183059 | 22 | 175 | 4.8 | 11.3 | 0.03 | 0.18 | 0.08 | 87 | 125.8 |
| 20260509182558 | 22 | 146 | 4.8 | 11.3 | 0.03 | 0.18 | 0.08 | 87 | 2028.7 |
| 20260509182058 | 22 | 192 | 1.6 | 4.8 | 0.00 | 0.18 | 0.05 | 87 | 311.3 |
| 20260509181611 | 22 | 231 | 1.6 | 4.8 | 0.00 | 0.18 | 0.05 | 87 | 1977.0 |
| 20260509181058 | 22 | 189 | 1.6 | 3.2 | 0.03 | 0.18 | 0.05 | 87 | 41.5 |
| 20260509180559 | 22 | 275 | 0.0 | 9.7 | 0.03 | 0.18 | 0.05 | 87 | 2028.7 |
| 20260509180108 | 22 | 198 | 3.2 | 9.7 | 0.03 | 0.18 | 0.05 | 88 | 146.5 |
| 20260509175558 | 22 | 161 | 3.2 | 9.7 | 0.03 | 0.18 | 0.05 | 88 | 1149.7 |
| 20260509175101 | 22 | 0 | 1.6 | 3.2 | 0.03 | 0.18 | 0.05 | 88 | 404.5 |
| 20260509174611 | 22 | 0 | 1.6 | 8.0 | 0.03 | 0.18 | 0.05 | 88 | 1863.3 |
| 20260509174057 | 22 | 189 | 1.6 | 8.0 | 0.03 | 0.18 | 0.05 | 88 | 229.5 |
| 20260509173602 | 22 | 250 | 1.6 | 9.7 | 0.03 | 0.18 | 0.05 | 88 | 984.2 |
| 20260509173110 | 22 | 221 | 1.6 | 9.7 | 0.00 | 0.18 | 0.03 | 88 | 311.3 |
| 20260509172601 | 22 | 219 | 1.6 | 11.3 | 0.00 | 0.18 | 0.03 | 88 | 735.8 |
| 20260509172058 | 22 | 198 | 3.2 | 11.3 | 0.00 | 0.18 | 0.03 | 88 | 2204.5 |
| 20260509171610 | 22 | 247 | 0.0 | 6.4 | 0.00 | 0.18 | 0.03 | 88 | 704.8 |
| 20260509171101 | 22 | 0 | 3.2 | 12.9 | 0.00 | 0.15 | 0.00 | 88 | 1615.1 |
| 20260509170558 | 22 | 240 | 4.8 | 12.9 | 0.00 | 0.15 | 0.00 | 88 | 808.3 |
| 20260509170107 | 22 | 252 | 3.2 | 11.3 | 0.00 | 0.15 | 0.00 | 88 | 1118.7 |
| 20260509165601 | 22 | 247 | 1.6 | 6.4 | 0.00 | 0.18 | 0.00 | 88 | 405.7 |
| 20260509165058 | 21 | 197 | 1.6 | 8.0 | 0.00 | 0.18 | 0.00 | 88 | 549.5 |
| 20260509164604 | 21 | 272 | 3.2 | 8.0 | 0.00 | 0.18 | 0.00 | 88 | 207.6 |
| 20260509164100 | 21 | 219 | 4.8 | 8.0 | 0.00 | 0.18 | 0.00 | 88 | 456.3 |
| 20260509163605 | 22 | 5 | 1.6 | 4.8 | 0.00 | 0.18 | 0.00 | 88 | 2028.7 |
| 20260509163113 | 21 | 360 | 0.0 | 4.8 | 0.00 | 0.18 | 0.00 | 88 | 2049.4 |
| 20260509162602 | 21 | 303 | 1.6 | 4.8 | 0.00 | 0.18 | 0.00 | 88 | 622.0 |
| 20260509162101 | 21 | 274 | 3.2 | 4.8 | 0.00 | 0.18 | 0.00 | 88 | 404.5 |
| 20260509161608 | 21 | 289 | 1.6 | 4.8 | 0.00 | 0.18 | 0.00 | 88 | 228.3 |
| 20260509161101 | 21 | 290 | 0.0 | 4.8 | 0.00 | 0.18 | 0.00 | 88 | 1863.3 |
| 20260509160601 | 21 | 200 | 1.6 | 4.8 | 0.00 | 0.18 | 0.00 | 88 | 1149.7 |
| 20260509155601 | 21 | 352 | 1.6 | 4.8 | 0.00 | 0.25 | 0.00 | 88 | 653.0 |
| 20260509155101 | 21 | 0 | 0.0 | 4.8 | 0.00 | 0.25 | 0.00 | 88 | 1129.0 |
| 20260509154605 | 21 | 22 | 3.2 | 6.4 | 0.00 | 0.25 | 0.00 | 88 | 322.8 |
| 20260509154057 | 21 | 0 | 1.6 | 6.4 | 0.00 | 0.25 | 0.00 | 88 | 1790.9 |
| 20260509153558 | 21 | 261 | 1.6 | 4.8 | 0.00 | 0.25 | 0.00 | 88 | 385.0 |
| 20260509153110 | 21 | 333 | 1.6 | 4.8 | 0.00 | 0.25 | 0.00 | 88 | 798.0 |
| 20260509152558 | 21 | 34 | 1.6 | 4.8 | 0.00 | 0.25 | 0.00 | 88 | 404.5 |
| 20260509152103 | 21 | 274 | 0.0 | 3.2 | 0.00 | 0.25 | 0.00 | 88 | 1046.2 |
| 20260509151558 | 21 | 274 | 0.0 | 3.2 | 0.00 | 0.23 | 0.00 | 89 | 404.5 |
| 20260509151101 | 21 | 274 | 1.6 | 6.4 | 0.00 | 0.23 | 0.00 | 89 | 808.3 |
| 20260509150602 | 21 | 307 | 3.2 | 6.4 | 0.00 | 0.23 | 0.00 | 89 | 405.7 |
| 20260509145602 | 21 | 345 | 1.6 | 4.8 | 0.00 | 0.28 | 0.00 | 89 | 322.8 |
| 20260509145102 | 21 | 312 | 1.6 | 4.8 | 0.00 | 0.28 | 0.00 | 89 | 1149.7 |
| 20260509144600 | 21 | 320 | 1.6 | 4.8 | 0.00 | 0.28 | 0.00 | 88 | 300.9 |
| 20260509144101 | 21 | 333 | 1.6 | 3.2 | 0.00 | 0.28 | 0.00 | 88 | 963.5 |
| 20260509143602 | 21 | 315 | 1.6 | 6.4 | 0.00 | 0.28 | 0.00 | 88 | 1304.9 |
| 20260509143110 | 21 | 0 | 1.6 | 6.4 | 0.00 | 0.28 | 0.00 | 88 | 704.8 |
| 20260509142602 | 21 | 288 | 3.2 | 4.8 | 0.00 | 0.28 | 0.00 | 88 | 1377.3 |
| 20260509142103 | 21 | 9 | 0.0 | 3.2 | 0.00 | 0.28 | 0.00 | 88 | 228.3 |
| 20260509141600 | 21 | 0 | 0.0 | 3.2 | 0.00 | 0.28 | 0.00 | 88 | 1966.7 |
| 20260509141058 | 21 | 105 | 0.0 | 3.2 | 0.03 | 0.28 | 0.00 | 88 | 1790.9 |
| 20260509140602 | 21 | 129 | 1.6 | 3.2 | 0.03 | 0.28 | 0.00 | 88 | 228.3 |
| 20260509140119 | 21 | 286 | 1.6 | 3.2 | 0.03 | 0.28 | 0.00 | 88 | 901.4 |
| 20260509135602 | 21 | 286 | 0.0 | 3.2 | 0.03 | 0.36 | 0.28 | 88 | 291.7 |
| 20260509135057 | 21 | 286 | 1.6 | 8.0 | 0.03 | 0.36 | 0.28 | 88 | 2111.4 |
| 20260509134600 | 21 | 262 | 1.6 | 8.0 | 0.05 | 0.36 | 0.28 | 88 | 1232.5 |
| 20260509134101 | 21 | 334 | 4.8 | 6.4 | 0.05 | 0.36 | 0.28 | 88 | 1056.6 |
| 20260509133602 | 21 | 352 | 3.2 | 4.8 | 0.05 | 0.36 | 0.28 | 88 | 1646.2 |
| 20260509133108 | 21 | 333 | 3.2 | 4.8 | 0.08 | 0.36 | 0.28 | 88 | 1697.9 |
| 20260509132602 | 21 | 360 | 1.6 | 4.8 | 0.08 | 0.36 | 0.28 | 88 | 62.3 |
| 20260509132101 | 21 | 360 | 1.6 | 4.8 | 0.05 | 0.33 | 0.25 | 88 | 2121.8 |
| 20260509131609 | 21 | 333 | 1.6 | 3.2 | 0.08 | 0.33 | 0.25 | 87 | 146.5 |
| 20260509131101 | 21 | 0 | 0.0 | 6.4 | 0.05 | 0.30 | 0.23 | 87 | 1728.9 |
| 20260509130601 | 21 | 230 | 1.6 | 6.4 | 0.05 | 0.30 | 0.23 | 87 | 229.5 |
| 20260509125602 | 21 | 344 | 3.2 | 4.8 | 0.08 | 0.33 | 0.23 | 87 | 219.2 |
| 20260509125101 | 21 | 344 | 1.6 | 4.8 | 0.08 | 0.33 | 0.23 | 87 | 622.0 |
| 20260509124612 | 21 | 344 | 1.6 | 4.8 | 0.05 | 0.30 | 0.20 | 87 | 2204.5 |
| 20260509124058 | 21 | 348 | 1.6 | 4.8 | 0.05 | 0.30 | 0.20 | 87 | 1056.6 |
| 20260509123600 | 21 | 15 | 1.6 | 3.2 | 0.05 | 0.30 | 0.20 | 86 | 219.2 |
| 20260509123100 | 21 | 15 | 1.6 | 4.8 | 0.03 | 0.28 | 0.18 | 86 | 1470.4 |
| 20260509122601 | 21 | 29 | 1.6 | 4.8 | 0.03 | 0.28 | 0.18 | 86 | 145.3 |
| 20260509122101 | 21 | 29 | 1.6 | 4.8 | 0.03 | 0.28 | 0.18 | 86 | 1563.4 |
| 20260509121602 | 21 | 43 | 1.6 | 4.8 | 0.00 | 0.28 | 0.18 | 86 | 385.0 |
| 20260509121104 | 21 | 38 | 1.6 | 4.8 | 0.00 | 0.28 | 0.18 | 86 | 808.3 |
| 20260509120633 | 21 | 0 | 1.6 | 4.8 | 0.00 | 0.28 | 0.18 | 86 | 135.0 |
| 20260509120101 | 21 | 349 | 0.0 | 4.8 | 0.00 | 0.28 | 0.18 | 85 | 5.8 |
| 20260509115601 | 21 | 236 | 3.2 | 4.8 | 0.00 | 0.36 | 0.15 | 85 | 1211.8 |
| 20260509115101 | 21 | 19 | 0.0 | 3.2 | 0.00 | 0.36 | 0.15 | 85 | 1398.0 |
| 20260509114601 | 21 | 31 | 0.0 | 3.2 | 0.00 | 0.36 | 0.15 | 85 | 53.1 |
| 20260509114101 | 21 | 264 | 0.0 | 6.4 | 0.00 | 0.36 | 0.15 | 84 | 125.8 |
| 20260509113600 | 21 | 0 | 0.0 | 6.4 | 0.00 | 0.36 | 0.15 | 84 | 1894.3 |
| 20260509113059 | 21 | 205 | 3.2 | 4.8 | 0.00 | 0.36 | 0.15 | 84 | 456.3 |
| 20260509112603 | 21 | 13 | 3.2 | 11.3 | 0.00 | 0.36 | 0.15 | 84 | 217.9 |
| 20260509112101 | 22 | 43 | 1.6 | 11.3 | 0.00 | 0.36 | 0.15 | 84 | 302.1 |
| 20260509111600 | 22 | 115 | 3.2 | 11.3 | 0.00 | 0.36 | 0.15 | 83 | 385.0 |
| 20260509111058 | 22 | 143 | 3.2 | 14.5 | 0.00 | 0.36 | 0.15 | 83 | 1532.4 |
| 20260509110604 | 22 | 136 | 4.8 | 14.5 | 0.00 | 0.36 | 0.15 | 83 | 735.8 |
| 20260509105601 | 22 | 236 | 4.8 | 14.5 | 0.00 | 0.41 | 0.15 | 84 | 1066.9 |
| 20260509105102 | 22 | 207 | 6.4 | 14.5 | 0.00 | 0.41 | 0.15 | 84 | 5.8 |
| 20260509104603 | 21 | 205 | 6.4 | 14.5 | 0.00 | 0.41 | 0.15 | 84 | 787.6 |
| 20260509104108 | 21 | 143 | 6.4 | 12.9 | 0.00 | 0.41 | 0.15 | 84 | 1129.0 |
| 20260509103601 | 21 | 167 | 6.4 | 14.5 | 0.00 | 0.41 | 0.15 | 83 | 2049.4 |
| 20260509103059 | 22 | 175 | 6.4 | 24.1 | 0.00 | 0.41 | 0.15 | 83 | 704.8 |
| 20260509102558 | 22 | 194 | 11.3 | 24.1 | 0.00 | 0.41 | 0.15 | 83 | 1046.2 |
| 20260509102101 | 22 | 186 | 9.7 | 24.1 | 0.00 | 0.41 | 0.15 | 82 | 300.9 |
| 20260509101600 | 22 | 219 | 8.0 | 14.5 | 0.00 | 0.41 | 0.15 | 82 | 2049.4 |
| 20260509101058 | 22 | 152 | 6.4 | 16.1 | 0.00 | 0.41 | 0.15 | 82 | 1387.6 |
| 20260509100602 | 22 | 147 | 4.8 | 17.7 | 0.00 | 0.41 | 0.15 | 82 | 818.6 |
| 20260509100110 | 22 | 169 | 8.0 | 17.7 | 0.00 | 0.41 | 0.15 | 82 | 1780.6 |
| 20260509095601 | 22 | 178 | 9.7 | 16.1 | 0.00 | 0.46 | 0.15 | 82 | 984.2 |
| 20260509095101 | 22 | 194 | 6.4 | 14.5 | 0.00 | 0.46 | 0.15 | 82 | 1222.1 |
| 20260509094559 | 22 | 164 | 6.4 | 12.9 | 0.00 | 0.46 | 0.15 | 82 | 1977.0 |
| 20260509094100 | 22 | 109 | 4.8 | 14.5 | 0.00 | 0.46 | 0.15 | 82 | 891.1 |
| 20260509093600 | 22 | 207 | 4.8 | 14.5 | 0.00 | 0.46 | 0.15 | 81 | 2039.1 |
| 20260509093100 | 22 | 213 | 8.0 | 24.1 | 0.00 | 0.46 | 0.15 | 81 | 1532.4 |
| 20260509092600 | 22 | 146 | 9.7 | 24.1 | 0.00 | 0.46 | 0.15 | 81 | 63.5 |
| 20260509092104 | 22 | 215 | 6.4 | 22.5 | 0.00 | 0.46 | 0.15 | 81 | 704.8 |
| 20260509091603 | 22 | 198 | 9.7 | 20.9 | 0.00 | 0.46 | 0.15 | 80 | 395.3 |
| 20260509091103 | 22 | 235 | 9.7 | 20.9 | 0.00 | 0.46 | 0.15 | 80 | 1035.9 |
| 20260509090601 | 22 | 180 | 8.0 | 16.1 | 0.00 | 0.46 | 0.15 | 80 | 394.1 |
| 20260509090101 | 22 | 175 | 8.0 | 22.5 | 0.00 | 0.46 | 0.15 | 80 | 302.1 |
| 20260509085601 | 22 | 199 | 12.9 | 22.5 | 0.00 | 0.46 | 0.15 | 80 | 2028.7 |
| 20260509085102 | 22 | 170 | 8.0 | 12.9 | 0.00 | 0.46 | 0.15 | 79 | 901.4 |
| 20260509084605 | 22 | 214 | 8.0 | 12.9 | 0.00 | 0.46 | 0.15 | 80 | 1222.1 |
| 20260509084101 | 22 | 229 | 8.0 | 16.1 | 0.00 | 0.46 | 0.15 | 80 | 963.5 |
| 20260509083601 | 22 | 194 | 3.2 | 16.1 | 0.00 | 0.46 | 0.15 | 80 | 53.1 |
| 20260509083111 | 22 | 238 | 6.4 | 19.3 | 0.00 | 0.46 | 0.15 | 79 | 228.3 |
| 20260509082601 | 22 | 194 | 9.7 | 19.3 | 0.00 | 0.46 | 0.15 | 79 | 136.2 |
| 20260509082105 | 22 | 183 | 6.4 | 19.3 | 0.00 | 0.46 | 0.15 | 79 | 1790.9 |
| 20260509081600 | 22 | 224 | 9.7 | 19.3 | 0.00 | 0.46 | 0.15 | 79 | 622.0 |
| 20260509081104 | 22 | 213 | 6.4 | 22.5 | 0.00 | 0.46 | 0.15 | 79 | 42.7 |
| 20260509080602 | 22 | 178 | 11.3 | 22.5 | 0.00 | 0.46 | 0.15 | 79 | 653.0 |
| 20260509080139 | 22 | 219 | 9.7 | 17.7 | 0.00 | 0.46 | 0.15 | 79 | 1977.0 |
| 20260509075603 | 22 | 175 | 4.8 | 17.7 | 0.00 | 0.53 | 0.15 | 79 | 395.3 |
| 20260509075101 | 22 | 202 | 3.2 | 12.9 | 0.00 | 0.53 | 0.15 | 79 | 1873.6 |
| 20260509074609 | 22 | 215 | 4.8 | 16.1 | 0.00 | 0.53 | 0.15 | 79 | 1387.6 |
| 20260509074102 | 22 | 227 | 8.0 | 16.1 | 0.00 | 0.53 | 0.15 | 79 | 1387.6 |
| 20260509073601 | 22 | 232 | 6.4 | 17.7 | 0.00 | 0.53 | 0.15 | 79 | 2132.1 |
| 20260509073216 | 22 | 244 | 6.4 | 17.7 | 0.00 | 0.53 | 0.15 | 79 | 1304.9 |
| 20260509072601 | 22 | 186 | 8.0 | 17.7 | 0.00 | 0.53 | 0.15 | 79 | 1066.9 |
| 20260509072101 | 22 | 186 | 6.4 | 16.1 | 0.00 | 0.53 | 0.15 | 79 | 622.0 |
| 20260509071600 | 22 | 225 | 8.0 | 16.1 | 0.00 | 0.53 | 0.15 | 78 | 2028.7 |
| 20260509071101 | 22 | 199 | 6.4 | 17.7 | 0.00 | 0.53 | 0.15 | 78 | 1966.7 |
| 20260509070602 | 22 | 179 | 9.7 | 22.5 | 0.00 | 0.53 | 0.15 | 79 | 715.1 |
| 20260509065601 | 22 | 198 | 6.4 | 19.3 | 0.00 | 0.56 | 0.15 | 78 | 1222.1 |
| 20260509065059 | 22 | 189 | 9.7 | 19.3 | 0.00 | 0.56 | 0.15 | 79 | 405.7 |
| 20260509064600 | 22 | 215 | 9.7 | 14.5 | 0.00 | 0.56 | 0.15 | 78 | 302.1 |
| 20260509064100 | 22 | 213 | 8.0 | 16.1 | 0.00 | 0.56 | 0.15 | 79 | 1129.0 |
| 20260509063559 | 22 | 217 | 4.8 | 16.1 | 0.00 | 0.56 | 0.15 | 79 | 124.6 |
| 20260509063102 | 22 | 205 | 6.4 | 14.5 | 0.00 | 0.56 | 0.15 | 79 | 953.2 |
| 20260509062559 | 22 | 230 | 6.4 | 11.3 | 0.00 | 0.56 | 0.15 | 78 | 374.6 |
| 20260509062059 | 22 | 130 | 4.8 | 11.3 | 0.00 | 0.56 | 0.15 | 79 | 1129.0 |
| 20260509061601 | 22 | 215 | 4.8 | 12.9 | 0.00 | 0.56 | 0.15 | 79 | 1284.2 |
| 20260509061058 | 22 | 219 | 3.2 | 12.9 | 0.00 | 0.56 | 0.15 | 79 | 2214.8 |
| 20260509060559 | 22 | 244 | 6.4 | 12.9 | 0.00 | 0.56 | 0.15 | 78 | 1035.9 |
| 20260509055559 | 22 | 218 | 6.4 | 16.1 | 0.00 | 0.56 | 0.15 | 79 | 1387.6 |
| 20260509055058 | 22 | 215 | 8.0 | 14.5 | 0.00 | 0.56 | 0.15 | 78 | 2049.4 |
| 20260509054604 | 22 | 202 | 6.4 | 24.1 | 0.00 | 0.56 | 0.15 | 78 | 2111.4 |
| 20260509054058 | 22 | 227 | 8.0 | 24.1 | 0.00 | 0.56 | 0.15 | 78 | 51.9 |
| 20260509053558 | 23 | 225 | 8.0 | 19.3 | 0.00 | 0.56 | 0.15 | 78 | 808.3 |
| 20260509053058 | 23 | 163 | 9.7 | 17.7 | 0.00 | 0.56 | 0.15 | 77 | 1625.5 |
| 20260509052559 | 23 | 199 | 6.4 | 17.7 | 0.00 | 0.56 | 0.15 | 77 | 145.3 |
| 20260509052100 | 23 | 186 | 8.0 | 17.7 | 0.00 | 0.56 | 0.15 | 78 | 487.3 |
| 20260509051604 | 23 | 211 | 9.7 | 17.7 | 0.00 | 0.56 | 0.15 | 77 | 42.7 |
| 20260509051103 | 23 | 201 | 8.0 | 17.7 | 0.00 | 0.56 | 0.15 | 78 | 1160.1 |
| 20260509050559 | 23 | 168 | 6.4 | 22.5 | 0.00 | 0.56 | 0.15 | 78 | 72.7 |
| 20260509050100 | 23 | 213 | 14.5 | 29.0 | 0.00 | 0.56 | 0.15 | 78 | 291.7 |
| 20260509045600 | 23 | 174 | 12.9 | 29.0 | 0.00 | 0.56 | 0.15 | 77 | 963.5 |
| 20260509045059 | 23 | 152 | 9.7 | 22.5 | 0.00 | 0.56 | 0.15 | 77 | 622.0 |
| 20260509044557 | 23 | 199 | 8.0 | 20.9 | 0.00 | 0.56 | 0.15 | 78 | 1294.5 |
| 20260509044102 | 23 | 169 | 8.0 | 17.7 | 0.00 | 0.56 | 0.15 | 79 | 2132.1 |
| 20260509043600 | 23 | 209 | 9.7 | 19.3 | 0.00 | 0.56 | 0.15 | 78 | 1222.1 |
| 20260509043104 | 23 | 221 | 11.3 | 20.9 | 0.00 | 0.56 | 0.15 | 78 | 374.6 |
| 20260509042559 | 23 | 220 | 11.3 | 20.9 | 0.00 | 0.56 | 0.15 | 78 | 808.3 |
| 20260509042102 | 23 | 188 | 11.3 | 19.3 | 0.00 | 0.56 | 0.15 | 78 | 2214.8 |
| 20260509041559 | 23 | 227 | 9.7 | 19.3 | 0.00 | 0.56 | 0.15 | 78 | 383.8 |
| 20260509041059 | 23 | 198 | 12.9 | 22.5 | 0.00 | 0.56 | 0.15 | 78 | 2204.5 |
| 20260509040600 | 23 | 200 | 9.7 | 22.5 | 0.00 | 0.56 | 0.15 | 78 | 312.4 |
| 20260509040107 | 23 | 192 | 12.9 | 27.4 | 0.00 | 0.56 | 0.15 | 78 | 570.2 |
| 20260509035559 | 23 | 165 | 9.7 | 27.4 | 0.00 | 0.56 | 0.15 | 79 | 466.6 |
| 20260509035059 | 23 | 192 | 12.9 | 24.1 | 0.00 | 0.56 | 0.15 | 78 | 383.8 |
| 20260509034557 | 23 | 194 | 11.3 | 22.5 | 0.00 | 0.56 | 0.15 | 79 | 891.1 |
| 20260509034059 | 23 | 217 | 11.3 | 17.7 | 0.00 | 0.56 | 0.15 | 79 | 1615.1 |
| 20260509033559 | 23 | 168 | 6.4 | 16.1 | 0.00 | 0.56 | 0.15 | 79 | 145.3 |
| 20260509033100 | 23 | 196 | 6.4 | 17.7 | 0.00 | 0.56 | 0.15 | 80 | 1129.0 |
| 20260509032559 | 23 | 230 | 8.0 | 17.7 | 0.00 | 0.56 | 0.15 | 79 | 963.5 |
| 20260509032058 | 23 | 234 | 4.8 | 16.1 | 0.00 | 0.56 | 0.15 | 80 | 1284.2 |
| 20260509031558 | 23 | 185 | 9.7 | 20.9 | 0.00 | 0.56 | 0.15 | 80 | 1790.9 |
| 20260509031058 | 23 | 222 | 11.3 | 20.9 | 0.00 | 0.56 | 0.15 | 79 | 787.6 |
| 20260509030558 | 23 | 192 | 11.3 | 19.3 | 0.00 | 0.56 | 0.15 | 80 | 870.4 |
| 20260509030101 | 23 | 226 | 9.7 | 19.3 | 0.00 | 0.56 | 0.15 | 80 | 1066.9 |
| 20260509025601 | 23 | 197 | 9.7 | 20.9 | 0.00 | 0.56 | 0.15 | 80 | 1790.9 |
| 20260509025058 | 23 | 184 | 12.9 | 27.4 | 0.00 | 0.56 | 0.15 | 80 | 1480.7 |
| 20260509024556 | 23 | 158 | 16.1 | 27.4 | 0.00 | 0.56 | 0.15 | 80 | 1315.2 |
| 20260509024059 | 23 | 218 | 8.0 | 29.0 | 0.00 | 0.56 | 0.15 | 80 | 984.2 |
| 20260509023558 | 23 | 202 | 9.7 | 29.0 | 0.00 | 0.56 | 0.15 | 80 | 302.1 |
| 20260509023100 | 23 | 150 | 16.1 | 29.0 | 0.00 | 0.56 | 0.15 | 80 | 1460.0 |
| 20260509022559 | 23 | 203 | 11.3 | 27.4 | 0.00 | 0.56 | 0.15 | 80 | 2132.1 |
| 20260509022059 | 23 | 169 | 12.9 | 27.4 | 0.00 | 0.56 | 0.15 | 80 | 41.5 |
| 20260509021559 | 23 | 159 | 12.9 | 25.7 | 0.00 | 0.56 | 0.15 | 80 | 1222.1 |
| 20260509021059 | 23 | 163 | 12.9 | 24.1 | 0.00 | 0.56 | 0.15 | 80 | 1366.9 |
| 20260509020558 | 23 | 163 | 6.4 | 19.3 | 0.00 | 0.56 | 0.15 | 80 | 228.3 |
| 20260509020100 | 23 | 187 | 8.0 | 19.3 | 0.00 | 0.56 | 0.15 | 81 | 62.3 |
| 20260509015558 | 23 | 223 | 11.3 | 19.3 | 0.00 | 0.56 | 0.15 | 80 | 984.2 |
| 20260509015100 | 23 | 231 | 4.8 | 14.5 | 0.00 | 0.56 | 0.15 | 81 | 73.9 |
| 20260509014600 | 23 | 214 | 6.4 | 20.9 | 0.00 | 0.56 | 0.15 | 80 | 1046.2 |
| 20260509014101 | 23 | 201 | 9.7 | 20.9 | 0.00 | 0.56 | 0.15 | 80 | 1956.3 |
| 20260509013558 | 23 | 183 | 9.7 | 20.9 | 0.00 | 0.56 | 0.15 | 80 | 1460.0 |
| 20260509013107 | 24 | 214 | 11.3 | 20.9 | 0.00 | 0.56 | 0.15 | 79 | 1718.5 |
| 20260509012558 | 24 | 199 | 6.4 | 22.5 | 0.00 | 0.56 | 0.15 | 80 | 880.7 |
| 20260509012058 | 24 | 171 | 6.4 | 22.5 | 0.00 | 0.56 | 0.15 | 81 | 1222.1 |
| 20260509011601 | 24 | 219 | 9.7 | 22.5 | 0.00 | 0.56 | 0.15 | 79 | 1542.8 |
| 20260509011058 | 23 | 213 | 11.3 | 22.5 | 0.00 | 0.56 | 0.15 | 80 | 1811.6 |
| 20260509010603 | 23 | 225 | 14.5 | 20.9 | 0.00 | 0.56 | 0.15 | 80 | 1232.5 |
| 20260509010100 | 23 | 223 | 9.7 | 33.8 | 0.00 | 0.56 | 0.15 | 81 | 549.5 |
| 20260509005558 | 23 | 188 | 12.9 | 33.8 | 0.00 | 0.56 | 0.15 | 81 | 1449.7 |
| 20260509005059 | 23 | 213 | 11.3 | 33.8 | 0.00 | 0.56 | 0.15 | 81 | 466.6 |
| 20260509004618 | 23 | 143 | 12.9 | 24.1 | 0.00 | 0.56 | 0.15 | 81 | 1708.2 |
| 20260509004057 | 23 | 243 | 8.0 | 19.3 | 0.00 | 0.56 | 0.15 | 82 | 622.0 |
| 20260509003559 | 23 | 173 | 8.0 | 17.7 | 0.00 | 0.56 | 0.15 | 82 | 1790.9 |
| 20260509003102 | 23 | 210 | 9.7 | 16.1 | 0.00 | 0.56 | 0.15 | 82 | 1501.4 |
| 20260509002558 | 23 | 173 | 11.3 | 16.1 | 0.00 | 0.56 | 0.15 | 82 | 1790.9 |
| 20260509002058 | 23 | 198 | 6.4 | 14.5 | 0.00 | 0.56 | 0.15 | 82 | 570.2 |
| 20260509001600 | 23 | 200 | 6.4 | 16.1 | 0.00 | 0.56 | 0.15 | 82 | 62.3 |
| 20260509001058 | 22 | 155 | 8.0 | 19.3 | 0.00 | 0.56 | 0.15 | 82 | 300.9 |
| 20260509000559 | 23 | 178 | 9.7 | 20.9 | 0.00 | 0.56 | 0.15 | 82 | 1956.3 |
| 20260508235600 | 23 | 174 | 12.9 | 20.9 | 0.00 | 0.58 | 0.15 | 82 | 394.1 |
| 20260508235058 | 23 | 185 | 8.0 | 19.3 | 0.00 | 0.58 | 0.15 | 82 | 549.5 |
| 20260508234557 | 23 | 183 | 9.7 | 16.1 | 0.00 | 0.58 | 0.15 | 82 | 1801.2 |
| 20260508234059 | 23 | 244 | 8.0 | 19.3 | 0.00 | 0.58 | 0.15 | 82 | 53.1 |
| 20260508233559 | 23 | 198 | 6.4 | 20.9 | 0.00 | 0.58 | 0.15 | 82 | 373.4 |
| 20260508233143 | 23 | 232 | 12.9 | 20.9 | 0.00 | 0.58 | 0.15 | 81 | 1222.1 |
| 20260508232559 | 23 | 215 | 6.4 | 17.7 | 0.00 | 0.58 | 0.15 | 81 | 725.5 |
| 20260508232101 | 23 | 233 | 8.0 | 17.7 | 0.00 | 0.58 | 0.15 | 82 | 549.5 |
| 20260508231607 | 23 | 155 | 8.0 | 12.9 | 0.00 | 0.58 | 0.15 | 82 | 124.6 |
| 20260508231102 | 23 | 205 | 4.8 | 14.5 | 0.00 | 0.58 | 0.15 | 82 | 207.6 |
| 20260508230558 | 23 | 219 | 6.4 | 14.5 | 0.00 | 0.58 | 0.15 | 82 | 1780.6 |
| 20260508230103 | 23 | 218 | 8.0 | 14.5 | 0.00 | 0.58 | 0.15 | 82 | 124.6 |
| 20260508225558 | 22 | 230 | 6.4 | 14.5 | 0.00 | 0.58 | 0.15 | 83 | 559.8 |
| 20260508225059 | 22 | 225 | 8.0 | 14.5 | 0.00 | 0.58 | 0.15 | 82 | 963.5 |
| 20260508224602 | 22 | 228 | 6.4 | 12.9 | 0.00 | 0.58 | 0.15 | 82 | 1966.7 |
| 20260508224100 | 22 | 215 | 6.4 | 12.9 | 0.00 | 0.58 | 0.15 | 82 | 559.8 |
| 20260508223601 | 22 | 215 | 3.2 | 11.3 | 0.00 | 0.58 | 0.15 | 82 | 642.7 |
| 20260508223059 | 22 | 241 | 4.8 | 11.3 | 0.00 | 0.58 | 0.15 | 82 | 1780.6 |
| 20260508222558 | 22 | 242 | 6.4 | 11.3 | 0.00 | 0.58 | 0.15 | 82 | 300.9 |
| 20260508222059 | 22 | 223 | 4.8 | 11.3 | 0.00 | 0.58 | 0.15 | 82 | 124.6 |
| 20260508221559 | 22 | 227 | 6.4 | 11.3 | 0.00 | 0.58 | 0.15 | 82 | 146.5 |
| 20260508221059 | 22 | 225 | 6.4 | 11.3 | 0.00 | 0.58 | 0.15 | 82 | 973.8 |
| 20260508220558 | 22 | 185 | 4.8 | 14.5 | 0.00 | 0.58 | 0.15 | 82 | 2214.8 |
| 20260508220109 | 22 | 215 | 6.4 | 14.5 | 0.00 | 0.58 | 0.15 | 82 | 1480.7 |
| 20260508215558 | 22 | 218 | 8.0 | 12.9 | 0.00 | 0.58 | 0.15 | 82 | 973.8 |
| 20260508215059 | 22 | 226 | 6.4 | 12.9 | 0.00 | 0.58 | 0.15 | 82 | 1718.5 |
| 20260508214602 | 22 | 209 | 4.8 | 12.9 | 0.00 | 0.58 | 0.15 | 82 | 312.4 |
| 20260508214058 | 22 | 217 | 6.4 | 14.5 | 0.00 | 0.58 | 0.15 | 83 | 72.7 |
| 20260508213558 | 22 | 222 | 4.8 | 14.5 | 0.00 | 0.58 | 0.15 | 83 | 394.1 |